Location: Hemaruka
(51.7801°N, 111.0917°W)
Time: 11:14:19
(UTC+00:00)

NOAA 15 - Pass Details

Date: 14 December 2023
Orbit: 797 x 810 km, 98.6° (Epoch: 02 March)

Event Time Altitude Azimuth Distance (km) Brightness Sun altitude
Rises 14:16:56 0° 23° (NNE) 3,320 7.8 -9.6°
Reaches altitude 10° 14:19:39 10° 35° (NE) 2,383 7.2 -9.3°
Maximum altitude 14:24:04 27° 93° (E) 1,504 6.9 -8.6°
Drops below altitude 10° 14:28:27 10° 150° (SSE) 2,365 8.0 -8.0°
Sets 14:31:07 0° 162° (SSE) 3,290 8.5 -7.7°
